Tracking 33744 objects as of 12-Apr-2026
HD Live streaming from Space Station
objects crossing your sky now

COSMOS 2491 DEB

Track COSMOS 2491 DEB now!
10-day predictions


NORAD ID: 44998
Int'l Code: 2013-076T
Perigee: 1,345.9 km
Apogee: 1,453.2 km
Inclination: 82.5 °
Period: 113.6 minutes
Semi major axis: 7770 km
RCS: Unknown
Launch date: December 25, 2013
Source: Commonwealth of Independent States (former USSR) (CIS)
Launch site: PLESETSK MISSILE AND SPACE COMPLEX (PKMTR)

Note: This is SATELLITE DEBRIS
Your satellite tracking list
Your tracking list is empty




NASA's NSSDC Master Catalog

Two Line Element Set (TLE):
1 44998U 13076S   26085.50409974  .00005088  00000-0  26244-1 0  9990
2 44998  82.4722 164.8433 0069031 341.0402  18.8123 12.67442372286819
Source of the keplerian elements: AFSPC